Weather History for Dodge City, KS

Change the Weather History Date:

Saturday, October 5, 2013

  Actual Average Record
Temperature  
Mean Temperature 52 °F -  
Max Temperature 63 °F 74 °F 95 °F (1947)
Min Temperature 42 °F 47 °F 29 °F (1932)
Degree Days  
Heating Degree Days 12    
Growing Degree Days 2 (Base 50)    
Moisture  
Dew Point 23 °F    
Average Humidity 34    
Maximum Humidity 53    
Minimum Humidity 10    
Precipitation  
Precipitation 0.00 in - - ()
Sea Level Pressure  
Sea Level Pressure 30.10 in    
Wind  
Wind Speed 22 mph (NW)    
Max Wind Speed 31 mph    
Max Gust Speed 48 mph    
Visibility 10 miles    
Events      
Averages and records for this station are not official NWS values.
T = Trace of Precipitation, MM = Missing Value Source: NWS Daily Summary

Daily Weather History Graph

Daily Weather History Graph

Search for Another Location

Airport:

Trip Planner

Search our weather history database for the weather conditions in past years. The results will help you decide how hot, cold, wet, or windy it might be!

Date:

Astronomy

Oct. 05, 2013 Rise Set
Actual Time 7:39 AM CDT 7:16 PM CDT
Civil Twilight 7:13 AM CDT 7:42 PM CDT
Nautical Twilight 6:42 AM CDT 8:12 PM CDT
Astronomical Twilight 6:12 AM CDT 8:43 PM CDT
Moon 8:19 AM CDT (10/5) 7:38 PM CDT (10/5)
Length of Visible Light 12h 29m
Length of Day
11h 37m
New Moon, 1% of the Moon is Illuminated
Oct 5
New Moon
Oct 11
First Quarter
Oct 18
Full
Oct 26
Last Quarter
Nov 3
New

Hourly Weather History & Observations

Time (CDT) Temp. Windchill Dew Point Humidity Pressure Visibility Wind Dir Wind Speed Gust Speed Precip Events Conditions
12:52 AM 44.1 °F 35.7 °F 27.0 °F 51% 30.09 in 10.0 mi NNW 20.7 mph 29.9 mph N/A   Partly Cloudy
1:52 AM 43.0 °F 34.0 °F 27.0 °F 53% 30.07 in 10.0 mi NNW 21.9 mph 32.2 mph N/A   Clear
2:52 AM 43.0 °F 34.2 °F 27.0 °F 53% 30.09 in 10.0 mi NNW 20.7 mph 35.7 mph N/A   Mostly Cloudy
3:52 AM 43.0 °F 34.2 °F 26.1 °F 51% 30.09 in 10.0 mi NNW 20.7 mph 29.9 mph N/A   Overcast
4:52 AM 43.0 °F 34.5 °F 26.1 °F 51% 30.09 in 10.0 mi NNW 19.6 mph 28.8 mph N/A   Overcast
5:52 AM 44.1 °F 34.2 °F 25.0 °F 47% 30.10 in 10.0 mi NW 28.8 mph 40.3 mph N/A   Overcast
6:52 AM 43.0 °F 34.0 °F 25.0 °F 49% 30.14 in 10.0 mi NW 21.9 mph 35.7 mph N/A   Mostly Cloudy
7:52 AM 42.1 °F 32.6 °F 25.0 °F 51% 30.15 in 10.0 mi NW 23.0 mph 33.4 mph N/A   Mostly Cloudy
8:52 AM 44.1 °F 35.0 °F 25.0 °F 47% 30.16 in 10.0 mi NW 24.2 mph 35.7 mph N/A   Mostly Cloudy
9:52 AM 46.0 °F 36.9 °F 24.1 °F 42% 30.17 in 10.0 mi WNW 28.8 mph 36.8 mph N/A   Clear
10:52 AM 51.1 °F - 24.1 °F 35% 30.15 in 10.0 mi NW 29.9 mph 43.7 mph N/A   Clear
11:52 AM 55.0 °F - 24.1 °F 30% 30.16 in 10.0 mi WNW 23.0 mph 34.5 mph N/A   Clear
12:52 PM 57.0 °F - 24.1 °F 28% 30.12 in 10.0 mi NW 27.6 mph 41.4 mph N/A   Clear
1:52 PM 59.0 °F - 24.1 °F 26% 30.09 in 10.0 mi WNW 31.1 mph 48.3 mph N/A   Clear
2:52 PM 61.0 °F - 21.0 °F 21% 30.07 in 10.0 mi NW 25.3 mph 38.0 mph N/A   Clear
3:52 PM 62.1 °F - 19.0 °F 19% 30.04 in 10.0 mi WNW 26.5 mph 34.5 mph N/A   Clear
4:52 PM 62.1 °F - 15.1 °F 16% 30.04 in 10.0 mi NW 27.6 mph 35.7 mph N/A   Clear
5:52 PM 61.0 °F - 18.0 °F 19% 30.03 in 10.0 mi NW 17.3 mph 21.9 mph N/A   Clear
6:52 PM 59.0 °F - 18.0 °F 20% 30.05 in 10.0 mi NNW 16.1 mph 25.3 mph N/A   Clear
7:52 PM 50.0 °F - 19.9 °F 31% 30.09 in 10.0 mi NW 9.2 mph - N/A   Clear
8:52 PM 46.9 °F - 19.9 °F 34% 30.10 in 10.0 mi NW 10.4 mph - N/A   Clear
9:52 PM 43.0 °F 38.2 °F 21.0 °F 42% 30.12 in 10.0 mi NW 8.1 mph - N/A   Clear
10:52 PM 43.0 °F 37.7 °F 21.0 °F 42% 30.12 in 10.0 mi WNW 9.2 mph - N/A   Clear
11:52 PM 46.0 °F 40.2 °F 19.9 °F 35% 30.11 in 10.0 mi WNW 12.7 mph - N/A   Clear